Weather History for Dallas/Ft Worth, TX

Change the Weather History Date:

Wednesday, June 19, 2013

  Actual Average Record
Temperature  
Mean Temperature 81 °F 82 °F  
Max Temperature 92 °F 92 °F 103 °F (1980)
Min Temperature 70 °F 72 °F 56 °F (1912)
Degree Days  
Heating Degree Days 0 0  
Month to date heating degree days 0 0  
Since 1 June heating degree days 0 0  
Since 1 July heating degree days 2045 2284  
Cooling Degree Days 16 17  
Month to date cooling degree days 297 292  
Year to date cooling degree days 686 714  
Since 1 June cooling degree days 297 292  
Growing Degree Days 30 (Base 50)    
Moisture  
Dew Point 70 °F    
Average Humidity 75    
Maximum Humidity 97    
Minimum Humidity 52    
Precipitation  
Precipitation 0.00 in 0.12 in 1.50 in (1920)
Month to date precipitation 2.14 2.56  
Year to date precipitation 15.30 18.81  
Sea Level Pressure  
Sea Level Pressure 29.92 in    
Wind  
Wind Speed 8 mph (SE)    
Max Wind Speed 21 mph    
Max Gust Speed 26 mph    
Visibility 10 miles    
Events      
T = Trace of Precipitation, MM = Missing Value Source: NWS Daily Summary

Daily Weather History Graph

Daily Weather History Graph

Search for Another Location

Airport:

Trip Planner

Search our weather history database for the weather conditions in past years. The results will help you decide how hot, cold, wet, or windy it might be!

Date:

Astronomy

Jun. 19, 2013 Rise Set
Actual Time 6:19 AM CDT 8:39 PM CDT
Civil Twilight 5:51 AM CDT 9:07 PM CDT
Nautical Twilight 5:15 AM CDT 9:43 PM CDT
Astronomical Twilight 4:37 AM CDT 10:21 PM CDT
Moon 4:41 PM CDT (6/19) 2:55 AM CDT (6/19)
Length of Visible Light 15h 16m
Length of Day
14h 19m
Waxing Gibbous, 80% of the Moon is Illuminated
Jun 19
Waxing Gibbous
Jun 23
Full
Jun 29
Last Quarter
Jul 8
New
Jul 15
First Quarter

Hourly Weather History & Observations

Time (CDT) Temp. Heat Index Dew Point Humidity Pressure Visibility Wind Dir Wind Speed Gust Speed Precip Events Conditions
12:53 AM 73.9 °F - 69.1 °F 85% 29.94 in 10.0 mi Calm Calm - N/A   Clear
1:53 AM 73.0 °F - 69.1 °F 87% 29.93 in 10.0 mi SE 4.6 mph - N/A   Clear
2:53 AM 72.0 °F - 68.0 °F 87% 29.92 in 10.0 mi SE 4.6 mph - N/A   Clear
3:53 AM 72.0 °F - 68.0 °F 87% 29.92 in 10.0 mi SE 3.5 mph - N/A   Clear
4:53 AM 70.0 °F - 68.0 °F 93% 29.93 in 7.0 mi SE 4.6 mph - N/A   Mostly Cloudy
5:13 AM 71.1 °F - 68.0 °F 90% 29.95 in 8.0 mi ESE 4.6 mph - N/A   Scattered Clouds
5:53 AM 71.1 °F - 69.1 °F 93% 29.93 in 9.0 mi ESE 4.6 mph - N/A   Scattered Clouds
6:53 AM 71.1 °F - 69.1 °F 93% 29.94 in 6.0 mi ESE 3.5 mph - N/A   Scattered Clouds
7:53 AM 75.0 °F - 70.0 °F 84% 29.94 in 7.0 mi ESE 5.8 mph - N/A   Scattered Clouds
8:53 AM 77.0 °F - 70.0 °F 79% 29.96 in 10.0 mi ESE 6.9 mph - N/A   Partly Cloudy
9:53 AM 81.0 °F 85.2 °F 72.0 °F 74% 29.96 in 10.0 mi SE 6.9 mph - N/A   Scattered Clouds
10:53 AM 82.9 °F 88.0 °F 72.0 °F 69% 29.96 in 10.0 mi SSE 4.6 mph - N/A   Scattered Clouds
11:53 AM 84.9 °F 90.7 °F 72.0 °F 65% 29.96 in 10.0 mi ESE 10.4 mph - N/A   Scattered Clouds
12:53 PM 87.1 °F 93.6 °F 72.0 °F 61% 29.97 in 10.0 mi Variable 5.8 mph - N/A   Mostly Cloudy
1:53 PM 90.0 °F 96.4 °F 71.1 °F 54% 29.95 in 10.0 mi East 5.8 mph - N/A   Mostly Cloudy
2:53 PM 90.0 °F 96.9 °F 72.0 °F 55% 29.92 in 10.0 mi East 6.9 mph - N/A   Mostly Cloudy
3:53 PM 91.0 °F 98.2 °F 72.0 °F 53% 29.89 in 10.0 mi SSE 10.4 mph - N/A   Mostly Cloudy
4:53 PM 90.0 °F 96.4 °F 71.1 °F 54% 29.90 in 10.0 mi South 8.1 mph - N/A   Mostly Cloudy
5:53 PM 89.1 °F 94.1 °F 70.0 °F 53% 29.89 in 10.0 mi SE 13.8 mph - N/A   Overcast
6:53 PM 87.1 °F 91.3 °F 69.1 °F 55% 29.85 in 10.0 mi SE 15.0 mph - N/A   Overcast
7:53 PM 86.0 °F 90.1 °F 69.1 °F 57% 29.83 in 10.0 mi SE 17.3 mph 26.5 mph N/A   Overcast
8:53 PM 82.0 °F 84.5 °F 66.9 °F 60% 29.89 in 10.0 mi SSE 12.7 mph - N/A   Overcast
9:53 PM 80.1 °F 82.3 °F 66.9 °F 64% 29.89 in 10.0 mi SSE 5.8 mph - N/A   Overcast
10:53 PM 78.1 °F - 68.0 °F 71% 29.92 in 10.0 mi SE 5.8 mph - N/A   Mostly Cloudy
11:53 PM 78.1 °F - 68.0 °F 71% 29.93 in 10.0 mi SE 4.6 mph - N/A   Overcast